Change the Weather History Date:

Thursday, August 8, 2013

  Actual Average Record
Temperature  
Mean Temperature 82 °F -  
Max Temperature 91 °F 92 °F 97 °F (1987)
Min Temperature 75 °F 75 °F 70 °F (1931)
Cooling Degree Days 18    
Growing Degree Days 32 (Base 50)    
Moisture  
Dew Point 74 °F    
Average Humidity 86    
Maximum Humidity 100    
Minimum Humidity 54    
Precipitation  
Precipitation 0.26 in - - ()
Sea Level Pressure  
Sea Level Pressure 29.96 in    
Wind  
Wind Speed 4 mph (East)    
Max Wind Speed 14 mph    
Max Gust Speed 18 mph    
Visibility 9 miles    
Events Rain    
Averages and records for this station are not official NWS values.
T = Trace of Precipitation, MM = Missing Value Source: NWS Daily Summary

Daily Weather History Graph

Daily Weather History Graph

Search for Another Location

Airport or City:

Trip Planner

Search our weather history database for the weather conditions in past years. The results will help you decide how hot, cold, wet, or windy it might be!

Date:

Astronomy

Aug. 08, 2013 Rise Set
Actual Time 6:55 AM EDT 8:09 PM EDT
Civil Twilight 6:31 AM EDT 8:33 PM EDT
Nautical Twilight 6:02 AM EDT 9:02 PM EDT
Astronomical Twilight 5:31 AM EDT 9:32 PM EDT
Moon 8:25 AM EDT (8/8) 9:05 PM EDT (8/8)
Length of Visible Light 14h 02m
Length of Day
13h 13m
Waxing Crescent, 3% of the Moon is Illuminated
Aug 8
Waxing Crescent
Aug 14
First Quarter
Aug 20
Full
Aug 28
Last Quarter
Sep 5
New

Hourly Weather History & Observations

Time (EDT) Temp. Heat Index Dew Point Humidity Pressure Visibility Wind Dir Wind Speed Gust Speed Precip Events Conditions
12:53 AM 75.9 °F - 75.0 °F 97% 29.96 in 10.0 mi Calm Calm - N/A   Clear
1:53 AM 75.9 °F - 75.0 °F 97% 29.96 in 10.0 mi Calm Calm - N/A   Partly Cloudy
2:53 AM 75.9 °F - 75.0 °F 97% 29.94 in 10.0 mi ENE 4.6 mph - N/A   Clear
3:53 AM 75.0 °F - 75.0 °F 100% 29.93 in 10.0 mi ENE 3.5 mph - N/A   Clear
4:53 AM 75.0 °F - 75.0 °F 100% 29.93 in 10.0 mi East 4.6 mph - N/A   Clear
5:53 AM 75.0 °F - 73.9 °F 96% 29.94 in 10.0 mi East 4.6 mph - N/A   Clear
6:53 AM 75.0 °F - 73.9 °F 96% 29.94 in 10.0 mi East 6.9 mph - N/A   Clear
7:53 AM 75.9 °F - 75.0 °F 97% 29.95 in 10.0 mi East 5.8 mph - N/A   Clear
8:53 AM 79.0 °F - 75.9 °F 90% 29.96 in 10.0 mi ESE 6.9 mph - N/A   Clear
9:53 AM 82.0 °F 89.4 °F 75.9 °F 82% 29.97 in 10.0 mi ESE 9.2 mph - N/A   Scattered Clouds
10:53 AM 84.9 °F 93.3 °F 75.0 °F 72% 29.98 in 10.0 mi SE 10.4 mph - N/A   Partly Cloudy
11:53 AM 86.0 °F 93.0 °F 73.0 °F 65% 29.99 in 10.0 mi SE 8.1 mph 16.1 mph N/A   Scattered Clouds
12:53 PM 88.0 °F 93.8 °F 71.1 °F 57% 29.97 in 10.0 mi ESE 13.8 mph 17.3 mph N/A   Partly Cloudy
1:53 PM 90.0 °F 96.4 °F 71.1 °F 54% 29.96 in 10.0 mi SE 6.9 mph 18.4 mph N/A   Partly Cloudy
2:53 PM 90.0 °F 96.4 °F 71.1 °F 54% 29.95 in 10.0 mi SSE 10.4 mph - N/A   Scattered Clouds
3:53 PM 84.9 °F 91.4 °F 73.0 °F 67% 29.94 in 10.0 mi NE 6.9 mph - 0.00 in Rain Light Rain
4:53 PM 84.9 °F 92.1 °F 73.9 °F 69% 29.93 in 10.0 mi North 3.5 mph - N/A   Mostly Cloudy
5:53 PM 81.0 °F 87.9 °F 77.0 °F 88% 29.93 in 10.0 mi West 6.9 mph - 0.04 in   Scattered Clouds
6:46 PM 77.0 °F - 73.4 °F 89% 29.97 in 1.8 mi Calm Calm - 0.02 in Rain Light Rain
6:53 PM 75.9 °F - 73.9 °F 94% 29.96 in 0.8 mi West 5.8 mph - 0.11 in Rain Heavy Rain
6:58 PM 75.2 °F - 73.4 °F 94% 29.96 in 2.0 mi West 8.1 mph - 0.02 in Rain Light Rain
7:05 PM 75.2 °F - 73.4 °F 94% 29.96 in 10.0 mi West 8.1 mph - 0.02 in   Mostly Cloudy
7:53 PM 75.9 °F - 73.9 °F 94% 29.97 in 10.0 mi West 6.9 mph - 0.06 in   Mostly Cloudy
8:53 PM 75.9 °F - 73.9 °F 94% 29.98 in 10.0 mi Calm Calm - 0.05 in   Scattered Clouds
9:53 PM 75.0 °F - 73.9 °F 96% 29.99 in 10.0 mi NNE 3.5 mph - N/A   Clear
10:53 PM 75.0 °F - 73.9 °F 96% 30.01 in 10.0 mi Calm Calm - N/A   Clear
11:53 PM 75.0 °F - 73.9 °F 96% 30.01 in 10.0 mi ENE 3.5 mph - N/A   Clear